Cape Girardeau, MO

1:41 PM CDT on April 23, 2018 (GMT -0500)
Cape Girardeau Regional

Weather History for KCGI - October, 2013

Change the Weather History Date:

Sunday, October 27, 2013

  Actual Average Record
Temperature  
Mean Temperature 48 °F 54 °F  
Max Temperature 64 °F 67 °F 86 °F (1963)
Min Temperature 31 °F 42 °F 26 °F (2001)
Degree Days  
Heating Degree Days 17    
Month to date heating degree days 227  
Since 1 July heating degree days 238  
Cooling Degree Days 0    
Month to date cooling degree days 44  
Year to date cooling degree days 1437  
Moisture  
Dew Point 36 °F    
Average Humidity 65    
Maximum Humidity 96    
Minimum Humidity 34    
Precipitation  
Precipitation 0.00 in 0.13 in 1.65 in (2006)
Month to date precipitation 2.58 3.28  
Year to date precipitation 31.25 37.61  
Sea Level Pressure  
Sea Level Pressure 30.09 in    
Wind  
Wind Speed 1 mph (East)    
Max Wind Speed 8 mph    
Max Gust Speed 12 mph    
Visibility 10 miles    
Events      
T = Trace of Precipitation, MM = Missing Value Source: NWS Daily Summary

Daily Weather History Graph

Daily Weather History Graph

Search for Another Location

Airport or City:

Astronomy

Oct. 27, 2013 Rise Set
Actual Time 7:17 AM CDT 6:05 PM CDT
Civil Twilight 6:51 AM CDT 6:32 PM CDT
Nautical Twilight 6:20 AM CDT 7:03 PM CDT
Astronomical Twilight 5:50 AM CDT 7:33 PM CDT
Moon 12:24 AM CDT (10/27) 2:06 PM CDT (10/27)
Length of Visible Light 11h 41m
Length of Day
10h 47m
Last Quarter, 43% of the Moon is Illuminated
Oct 27
Last Quarter
Nov 3
New
Nov 9
First Quarter
Nov 17
Full
Nov 25
Last Quarter

Hourly Weather History & Observations

Time (CDT) Temp. Windchill Dew Point Humidity Pressure Visibility Wind Dir Wind Speed Gust Speed Precip Events Conditions
12:53 AM 45.0 °F 42.6 °F 33.1 °F 63% 30.11 in 10.0 mi North 4.6 mph - N/A   Clear
1:53 AM 44.1 °F - 32.0 °F 63% 30.11 in 10.0 mi Calm Calm - N/A   Clear
2:53 AM 41.0 °F - 32.0 °F 70% 30.11 in 10.0 mi Calm Calm - N/A   Clear
3:53 AM 36.0 °F - 30.9 °F 82% 30.11 in 10.0 mi Calm Calm - N/A   Clear
4:53 AM 34.0 °F - 30.9 °F 89% 30.11 in 10.0 mi Calm Calm - N/A   Clear
5:53 AM 33.1 °F - 30.0 °F 89% 30.11 in 10.0 mi Calm Calm - N/A   Clear
6:53 AM 33.1 °F - 30.0 °F 89% 30.12 in 10.0 mi Calm Calm - N/A   Clear
7:53 AM 33.1 °F - 32.0 °F 96% 30.12 in 10.0 mi Calm Calm - N/A   Clear
8:53 AM 43.0 °F - 37.0 °F 80% 30.13 in 10.0 mi Calm Calm - N/A   Clear
9:53 AM 50.0 °F - 37.0 °F 61% 30.14 in 10.0 mi NE 4.6 mph - N/A   Clear
10:53 AM 54.0 °F - 36.0 °F 51% 30.14 in 10.0 mi Variable 3.5 mph - N/A   Clear
11:53 AM 57.9 °F - 32.0 °F 37% 30.12 in 10.0 mi Calm Calm - N/A   Clear
12:53 PM 60.1 °F - 32.0 °F 35% 30.10 in 10.0 mi Calm Calm - N/A   Clear
1:53 PM 62.1 °F - 33.1 °F 34% 30.06 in 10.0 mi Calm Calm - N/A   Clear
2:53 PM 63.0 °F - 34.0 °F 34% 30.05 in 10.0 mi Calm Calm - N/A   Clear
3:53 PM 63.0 °F - 33.1 °F 33% 30.05 in 10.0 mi Calm Calm - N/A   Clear
4:53 PM 62.1 °F - 36.0 °F 38% 30.04 in 10.0 mi SSE 3.5 mph - N/A   Clear
5:53 PM 57.9 °F - 37.0 °F 46% 30.04 in 10.0 mi SE 3.5 mph - N/A   Clear
6:53 PM 52.0 °F - 39.0 °F 61% 30.05 in 10.0 mi Calm Calm - N/A   Partly Cloudy
7:53 PM 46.9 °F - 39.9 °F 77% 30.05 in 10.0 mi Calm Calm - N/A   Clear
8:53 PM 46.9 °F - 41.0 °F 80% 30.05 in 10.0 mi Calm Calm - N/A   Scattered Clouds
9:53 PM 48.9 °F - 44.1 °F 83% 30.06 in 10.0 mi Calm Calm - N/A   Overcast
10:53 PM 50.0 °F - 45.0 °F 83% 30.06 in 10.0 mi Calm Calm - N/A   Overcast
11:53 PM 51.1 °F - 45.0 °F 80% 30.07 in 10.0 mi Calm Calm - N/A   Overcast